Ketchikan, AK

9:49 AM AKST on November 13, 2018 (GMT -0900)
Ketchikan International

Weather History for PAKT - June, 2018

Change the Weather History Date:

Thursday, June 14, 2018

  Actual Average Record
Temperature  
Mean Temperature 56 °F -  
Max Temperature 63 °F 62 °F 84 °F (2002)
Min Temperature 51 °F 47 °F 40 °F (1971)
Degree Days  
Heating Degree Days 8    
Growing Degree Days 6 (Base 50)    
Moisture  
Dew Point 47 °F    
Average Humidity 77    
Maximum Humidity 100    
Minimum Humidity 48    
Precipitation  
Precipitation 0.02 in - - ()
Sea Level Pressure  
Sea Level Pressure 29.99 in    
Wind  
Wind Speed 7 mph (NNE)    
Max Wind Speed 14 mph    
Max Gust Speed 21 mph    
Visibility 7 miles    
Events Rain    
Averages and records for this station are not official NWS values.
T = Trace of Precipitation, MM = Missing Value Source: NWS Daily Summary

Daily Weather History Graph

Daily Weather History Graph

Search for Another Location

Airport or City:

Astronomy

Jun. 14, 2018 Rise Set
Actual Time 4:04 AM AKDT 9:29 PM AKDT
Civil Twilight 3:05 AM AKDT 10:29 PM AKDT
Nautical Twilight 1:19 AM AKDT 12:14 AM AKDT
Astronomical Twilight Sun does not rise Sun does not rise
Moon 5:21 AM AKDT (6/14) 10:25 PM AKDT (6/14)
Length of Visible Light 19h 23m
Length of Day
17h 24m
New Moon, 2% of the Moon is Illuminated
Jun 14
New Moon
Jun 20
First Quarter
Jun 27
Full
Jul 5
Last Quarter
Jul 12
New

Hourly Weather History & Observations

Time (AKDT) Temp. Dew Point Humidity Pressure Visibility Wind Dir Wind Speed Gust Speed Precip Events Conditions
12:38 AM 53.1 °F 51.1 °F 93% 29.91 in 2.5 mi ESE 9.2 mph - 0.00 in   Overcast
12:53 AM 53.1 °F 51.1 °F 93% 29.91 in 4.0 mi ESE 10.4 mph - 0.00 in   Overcast
1:40 AM 53.1 °F 51.1 °F 93% 29.92 in 3.0 mi SE 5.8 mph - N/A   Overcast
1:44 AM 53.1 °F 50.0 °F 89% 29.92 in 2.5 mi SE 5.8 mph - N/A   Overcast
1:53 AM 53.1 °F 51.1 °F 93% 29.92 in 2.0 mi ESE 6.9 mph - N/A   Overcast
2:13 AM 53.1 °F 51.1 °F 93% 29.92 in 2.0 mi ESE 6.9 mph - N/A   Overcast
2:41 AM 52.0 °F 51.1 °F 97% 29.92 in 3.0 mi ESE 4.6 mph - N/A   Overcast
2:53 AM 53.1 °F 51.1 °F 93% 29.93 in 3.0 mi ESE 4.6 mph - N/A   Overcast
3:09 AM 53.1 °F 51.1 °F 93% 29.92 in 4.0 mi SE 4.6 mph - N/A   Overcast
3:53 AM 52.0 °F 51.1 °F 97% 29.94 in 3.0 mi SE 4.6 mph - N/A   Overcast
4:53 AM 52.0 °F 51.1 °F 97% 29.94 in 2.0 mi ESE 4.6 mph - N/A   Overcast
5:11 AM 52.0 °F 51.1 °F 97% 29.94 in 1.8 mi ESE 3.5 mph - N/A   Overcast
5:50 AM 51.8 °F 51.8 °F 100% 29.95 in 2.5 mi Calm Calm - 0.02 in Rain Light Rain
5:53 AM 53.1 °F 51.1 °F 93% 29.95 in 4.0 mi Calm Calm - 0.02 in Rain Light Rain
6:01 AM 52.0 °F 50.0 °F 93% 29.95 in 10.0 mi North 3.5 mph - 0.00 in   Overcast
6:02 AM 52.0 °F 48.9 °F 89% 29.95 in 10.0 mi NNW 3.5 mph - 0.00 in   Overcast
6:04 AM 51.8 °F 48.2 °F 88% 29.95 in 10.0 mi North 3.5 mph - N/A   Overcast
6:53 AM 53.6 °F 48.2 °F 82% 29.96 in 10.0 mi NNW 8.1 mph - N/A   Mostly Cloudy
7:53 AM 53.6 °F 50.0 °F 88% 29.98 in 10.0 mi North 10.4 mph - N/A   Overcast
8:53 AM 55.4 °F 48.2 °F 77% 29.99 in 10.0 mi NNW 9.2 mph - N/A   Mostly Cloudy
9:53 AM 57.2 °F 46.4 °F 67% 30.00 in 10.0 mi North 11.5 mph - N/A   Mostly Cloudy
10:53 AM 57.2 °F 44.6 °F 63% 30.01 in 10.0 mi NNW 10.4 mph - N/A   Overcast
11:53 AM 60.8 °F 44.6 °F 55% 30.02 in 10.0 mi NNW 10.4 mph - N/A   Scattered Clouds
12:53 PM 60.8 °F 42.8 °F 52% 30.04 in 10.0 mi North 10.4 mph - N/A   Scattered Clouds
1:53 PM 62.1 °F 43.0 °F 50% 30.04 in 10.0 mi NNW 13.8 mph - N/A   Scattered Clouds
2:53 PM 62.1 °F 42.1 °F 48% 30.04 in 10.0 mi North 11.5 mph - N/A   Scattered Clouds
3:53 PM 62.1 °F 42.1 °F 48% 30.04 in 10.0 mi NNW 10.4 mph - N/A   Scattered Clouds
4:53 PM 62.1 °F 42.1 °F 48% 30.05 in 10.0 mi NNW 11.5 mph - N/A   Mostly Cloudy
5:53 PM 60.8 °F 41.0 °F 48% 30.06 in 10.0 mi WNW 8.1 mph - N/A   Mostly Cloudy
6:53 PM 57.2 °F 39.2 °F 51% 30.07 in 10.0 mi WNW 9.2 mph 20.7 mph N/A   Mostly Cloudy
7:53 PM 55.9 °F 39.9 °F 55% 30.08 in 10.0 mi Variable 6.9 mph - N/A   Mostly Cloudy
8:53 PM 54.0 °F 39.9 °F 59% 30.09 in 10.0 mi WNW 6.9 mph - N/A   Scattered Clouds
9:53 PM 53.1 °F 39.9 °F 61% 30.11 in 10.0 mi WNW 6.9 mph - N/A   Overcast
10:53 PM 52.0 °F 41.0 °F 66% 30.12 in 10.0 mi NW 4.6 mph - N/A   Overcast
11:53 PM 51.1 °F 42.1 °F 71% 30.13 in 10.0 mi Variable 6.9 mph - N/A   Mostly Cloudy